Regional Weather Roundup
Issued by NWS Nashville, TN

Home | Current Version | Previous Version | Text Only | Print | Product List | Glossary On
Versions: 1 2 3 4 5 6 7 8 9 10 11 12 13 14 15 16 17 18 19 20 21 22 23 24 25 26 27 28 29 30 31 32 33 34 35 36 37 38 39 40 41 42 43 44 45 46 47 48 49 50
000
ASUS44 KOHX 232310
RWROHX
MIDDLE TENNESSEE HOURLY WEATHER ROUNDUP
NATIONAL WEATHER SERVICE NASHVILLE TN
600 PM CDT TUE SEP 23 2014

NOTE: "FAIR" INDICATES FEW OR NO CLOUDS BELOW 12,000 FEET WITH
NO SIGNIFICANT WEATHER AND/OR OBSTRUCTIONS TO VISIBILITY.

* THESE REPORTS ARE NOT UNDER NWS QUALITY CONTROL AND MAY NOT
  REPORT WEATHER SUCH AS PRECIPITATION AND FOG.


TNZ005>011-023>034-057-059-062>066-078-080-240000
...NORTHERN MIDDLE TENNESSEE...

CITY           SKY/WX    TMP DP  RH WIND       PRES   REMARKS
CLARKSVILLE    CLEAR     74  46  36 NE10      30.19F
CROSSVILLE     CLEAR     70  45  40 CALM      30.24S
GALLATIN         N/A     74  50  42 NE6       30.22S
DICKSON        CLEAR     72  46  40 NE7       30.20S
LEBANON        CLEAR     73  46  38 E6        30.20S
LIVINGSTON     CLEAR     68  49  50 NE6       30.24
NASHVILLE      CLEAR     74  45  35 NE9       30.20S
WEST NASHVILLE   N/A     75  45  33 NE5       30.19F
PORTLAND       CLEAR     72  48  43 NE7       30.21S
SMYRNA         CLEAR     76  44  31 NE9       30.20F
SPARTA         CLEAR     72  54  53 CALM      30.21F
$$
TNZ056-058-060-061-075>077-079-093>097-240000
...SOUTHERN MIDDLE TENNESSEE...

CITY           SKY/WX    TMP DP  RH WIND       PRES   REMARKS
COLUMBIA       CLEAR     75  48  38 NE5       30.17S
FAYETTEVILLE   CLEAR     73  52  46 NE8       30.18S
LEWISBURG      CLEAR     74  47  38 N6        30.18S
MCMINNVILLE    CLEAR     72  55  56 N7        30.21S
MURFREESBORO   CLEAR     75  48  38 NE6       30.19
SHELBYVILLE    CLEAR     73  52  46 NE6       30.20S
TULLAHOMA      CLEAR     73  48  40 N7        30.20S
WINCHESTER     MOCLDY    75  55  50 CALM      30.19R
$$


...KEY TO REMARKS...
VSB - VISIBILITY IN MILES
WCI - WIND CHILL INDEX
HX  - HEAT INDEX




USA.gov is the U.S. government's official web portal to all federal, state and local government web resources and services.